Weather History for Terrace, BC

Change the Weather History Date:

Sunday, March 31, 2013

  Actual Average Record
Temperature  
Mean Temperature 48 °F -  
Max Temperature 62 °F 50 °F 62 °F (2013)
Min Temperature 33 °F 34 °F 23 °F (2008)
Degree Days  
Heating Degree Days 18    
Moisture  
Dew Point 32 °F    
Average Humidity 59    
Maximum Humidity 87    
Minimum Humidity 22    
Precipitation  
Precipitation 0.00 in 0.09 in - ()
Sea Level Pressure  
Sea Level Pressure 30.19 in    
Wind  
Wind Speed 9 mph ()    
Max Wind Speed 18 mph    
Max Gust Speed 24 mph    
Visibility 19.9 miles    
Events      
Averages and records for this station are not official NWS values.
T = Trace of Precipitation, MM = Missing Value Source: Averaged Metar Reports

Daily Weather History Graph

Daily Weather History Graph

Search for Another Location

Airport:

Trip Planner

Search our weather history database for the weather conditions in past years. The results will help you decide how hot, cold, wet, or windy it might be!

Date:

Astronomy

Mar. 31, 2013 Rise Set
Actual Time 7:08 AM PDT 8:09 PM PDT
Civil Twilight 6:31 AM PDT 8:46 PM PDT
Nautical Twilight 5:47 AM PDT 9:30 PM PDT
Astronomical Twilight 4:59 AM PDT 10:19 PM PDT
Moon 1:02 AM PDT (3/31) 9:19 AM PDT (3/31)
Length of Visible Light 14h 14m
Length of Day
13h 01m
Waning Gibbous, 76% of the Moon is Illuminated
Mar 31
Waning Gibbous
Apr 2
Last Quarter
Apr 10
New
Apr 18
First Quarter
Apr 25
Full

Hourly Weather History & Observations

Time (PDT) Temp. Windchill Dew Point Humidity Pressure Visibility Wind Dir Wind Speed Gust Speed Precip Events Conditions
12:00 AM 39.2 °F 37.0 °F 32.0 °F 75% 30.32 in 20.0 mi NW 3.5 mph - N/A   Mostly Cloudy
1:00 AM 37.4 °F 34.9 °F 30.2 °F 75% 30.32 in 20.0 mi NW 3.5 mph - N/A   Mostly Cloudy
2:00 AM 37.4 °F 32.8 °F 30.2 °F 75% 30.32 in 20.0 mi North 5.8 mph - N/A   Mostly Cloudy
3:00 AM 35.6 °F 29.2 °F 30.2 °F 81% 30.31 in 20.0 mi NNW 8.1 mph - N/A   Scattered Clouds
4:00 AM 37.4 °F 29.8 °F 30.2 °F 75% 30.30 in 20.0 mi NNE 11.5 mph - N/A   Partly Cloudy
5:00 AM 36 °F - 30 °F 72% 30.29 in 19 mi North 13.8 mph - -   Clear
5:00 AM 35.6 °F 26.6 °F 30.2 °F 81% 30.29 in 20.0 mi NNE 13.8 mph - N/A   Partly Cloudy
6:00 AM 33.8 °F 23.9 °F 30.2 °F 87% 30.28 in 20.0 mi North 15.0 mph - N/A   Partly Cloudy
7:00 AM 35.6 °F 25.5 °F 30.2 °F 81% 30.28 in 20.0 mi North 17.3 mph - N/A   Partly Cloudy
8:00 AM 35.6 °F 25.5 °F 30.2 °F 81% 30.28 in 20.0 mi North 17.3 mph - N/A   Partly Cloudy
9:00 AM 37.4 °F 29.3 °F 30.2 °F 75% 30.27 in 20.0 mi North 12.7 mph 23.0 mph N/A   Scattered Clouds
10:00 AM 41.0 °F 32.2 °F 32.0 °F 70% 30.25 in 20.0 mi North 18.4 mph 24.2 mph N/A   Partly Cloudy
11:00 AM 47 °F - 32 °F 44% 30.23 in 19 mi NNW 17.3 mph - -   Clear
11:00 AM 46.4 °F 39.5 °F 32.0 °F 57% 30.23 in 20.0 mi NNW 17.3 mph 23.0 mph N/A   Partly Cloudy
12:00 PM 48.2 °F - 32.0 °F 54% 30.22 in 20.0 mi North 11.5 mph - N/A   Partly Cloudy
1:00 PM 53.6 °F - 33.8 °F 47% 30.19 in 20.0 mi North 11.5 mph - N/A   Scattered Clouds
2:00 PM 57.2 °F - 32.0 °F 38% 30.15 in 20.0 mi North 8.1 mph - N/A   Partly Cloudy
3:00 PM 59.0 °F - 33.8 °F 39% 30.12 in 20.0 mi North 5.8 mph - N/A   Partly Cloudy
4:00 PM 60.8 °F - 33.8 °F 36% 30.10 in 20.0 mi NNW 6.9 mph - N/A   Clear
5:00 PM 62 °F - 33 °F 22% 30.08 in 19 mi NNW 6.9 mph - -   Clear
5:00 PM 62.6 °F - 32.0 °F 32% 30.07 in 20.0 mi NNW 8.1 mph - N/A   Partly Cloudy
6:00 PM 60.8 °F - 33.8 °F 36% 30.06 in 20.0 mi West 9.2 mph - N/A   Partly Cloudy
7:00 PM 57.2 °F - 33.8 °F 41% 30.05 in 20.0 mi West 6.9 mph - N/A   Partly Cloudy
8:00 PM 51.8 °F - 33.8 °F 50% 30.05 in 20.0 mi West 9.2 mph - N/A   Partly Cloudy
9:00 PM 50.0 °F - 33.8 °F 54% 30.04 in 20.0 mi West 8.1 mph - N/A   Mostly Cloudy
10:00 PM 46.4 °F 43.5 °F 33.8 °F 62% 30.05 in 20.0 mi NW 5.8 mph - N/A   Mostly Cloudy
11:00 PM 44 °F - 33 °F 55% 30.04 in 19 mi North 6.9 mph - -   Partly Cloudy
11:00 PM 44.6 °F 41.4 °F 33.8 °F 66% 30.04 in 20.0 mi NNW 5.8 mph - N/A   Scattered Clouds